Starlink 32905

operational
NORAD ID: 62923 Int'l Des: 2025-027 Owner: SPXS Country: US Constellation: starlink
LEOCIRCULAR

Starlink 32905について

説明を読み込み中...

リアルタイム位置

3D地球を読み込み中...

次回通過

高度履歴

Altitude vs Time

uPlot chart will show altitude changes over time

軌道要素

1 62923U 25027S 25257.43221694 .00017957 00000-0 65996-3 0 9997
2 62923 43.0002 44.4795 0001538 278.2863 81.7814 15.27605011 34586
Epoch: Sep 14, 2025 • Age: 19 hours

現在のステータス

高度 490.8 km
速度 7.62 km/s
衛星直下点 -32.07°S, 70.97°W
打ち上げ日 Feb 8, 2025
運用期間 0.5 years
タイプ internet

技術仕様

分類 Payload
質量 730.00 kg
乾燥質量 700.00 kg
総質量 730.00 kg
長さ 0.30 m
直径 4.10 m
スパン 29.00 m
形状 Box + pan
製造者 SPXS
バスタイプ Starlink V2M
フェーズステータス In Orbit
所有者/国 SPXS/US

大規模コンステレーション

Loading constellations...